KE4AMH Weather Reports


Display with metric or nautical units.
time (UTC)temp
F
wind
direction
speed
MPH
gust
MPH
rain 1hr
in
rain 24hr
in
rain mn
in
humidity
%
barometer
mb
20260507192606 76 250 5.0 5.0 0.00 1.02 1.02 73 1009.5
20260507192103 77 282 2.0 4.0 0.00 1.02 1.02 71 1009.6
20260507191558 76 251 2.0 3.0 0.00 1.02 1.02 74 1009.8
20260507191055 74 243 1.0 5.0 0.00 1.02 1.02 78 1009.6
20260507190552 73 233 3.0 4.0 0.00 1.02 1.02 81 1009.7
20260507190051 74 270 0.0 4.0 0.00 1.02 1.02 80 1009.5
20260507185549 75 270 0.0 5.0 0.00 1.02 1.02 81 1009.5
20260507185045 78 106 0.0 3.0 0.00 1.02 1.02 78 1009.6
20260507184544 76 279 2.0 4.0 0.00 1.02 1.02 80 1009.8
20260507184041 76 263 1.0 3.0 0.00 1.02 1.02 80 1009.9
20260507183537 75 258 0.0 7.0 0.00 1.02 1.02 81 1009.9
20260507183034 75 262 3.0 4.0 0.00 1.02 1.02 82 1009.8
20260507182530 75 221 0.0 3.0 0.00 1.02 1.02 84 1010.0
20260507182026 75 253 2.0 3.0 0.00 1.02 1.02 85 1009.8
20260507181524 74 281 0.0 5.0 0.00 1.02 1.02 85 1010.0
20260507181020 74 267 4.0 5.0 0.00 1.02 1.02 83 1010.1
20260507180516 74 270 2.0 3.0 0.00 1.02 1.02 87 1010.1
20260507180013 73 254 2.0 3.0 0.00 1.02 1.02 85 1009.9
20260507175509 73 243 2.0 2.0 0.00 1.02 1.02 86 1010.2
20260507175007 73 98 1.0 7.0 0.00 1.02 1.02 85 1010.0
20260507174504 71 180 2.0 5.0 0.00 1.02 1.02 88 1010.3
20260507174002 72 270 2.0 2.0 0.00 1.02 1.02 88 1010.1
20260507173458 74 239 2.0 3.0 0.00 1.02 1.02 88 1010.0
20260507172955 73 320 2.0 3.0 0.00 1.02 1.02 88 1010.0
20260507172451 73 254 0.0 2.0 0.00 1.02 1.02 90 1010.3
20260507171948 71 276 0.0 2.0 0.00 1.02 1.02 91 1009.8
20260507171444 72 279 0.0 2.0 0.00 1.02 1.02 93 1010.0
20260507170942 70 246 1.0 3.0 0.00 1.02 1.02 94 1010.3
20260507170438 69 230 4.0 5.0 0.00 1.02 1.02 99 1010.0
20260507165934 68 174 4.0 4.0 0.00 1.02 1.02 99 1010.3
20260507165431 68 270 0.0 2.0 0.00 1.02 1.02 99 1010.3
20260507164926 68 216 0.0 3.0 0.00 1.02 1.02 99 1010.0
20260507164424 68 243 2.0 4.0 0.00 1.02 1.02 99 1010.1
20260507163920 67 259 2.0 4.0 0.00 1.02 1.02 99 1010.3
20260507163418 67 270 1.0 2.0 0.00 1.02 1.02 99 1010.3
20260507162915 67 265 2.0 2.0 0.00 1.02 1.02 99 1010.1
20260507162410 67 243 1.0 2.0 0.00 1.02 1.02 99 1010.0
20260507161908 67 251 2.0 2.0 0.00 1.02 1.02 99 1009.9
20260507161403 67 270 0.0 2.0 0.00 1.02 1.02 99 1010.1
20260507160900 66 294 1.0 2.0 0.00 1.02 1.02 99 1010.3
20260507160356 66 270 0.0 1.0 0.00 1.02 1.02 99 1010.4
20260507155852 66 262 0.0 1.0 0.02 1.02 1.02 99 1010.8
20260507155348 65 270 0.0 1.0 0.02 1.02 1.02 99 1010.6
20260507154845 65 99 0.0 1.0 0.00 1.01 1.01 99 1010.5
20260507154345 65 270 0.0 1.0 0.00 1.01 1.01 99 1011.2
20260507154343 65 270 0.0 1.0 0.00 1.01 1.01 99 1011.2
20260507153839 65 285 0.0 1.0 0.00 1.01 1.01 99 1011.2
20260507153537 65 286 0.0 1.0 0.00 1.01 1.01 99 1011.2
20260507153336 65 286 0.0 1.0 0.00 1.01 1.01 99 1011.2
20260507152833 65 254 2.0 2.0 0.00 1.01 1.01 99 1010.8
20260507152329 66 276 0.0 2.0 0.00 1.01 1.01 99 1010.6
20260507152014 66 240 0.0 2.0 0.00 1.01 1.01 99 1010.7
20260507151825 66 240 0.0 2.0 0.00 1.01 1.01 99 1010.7
20260507151321 66 294 0.0 2.0 0.00 1.01 1.01 99 1010.8
20260507150818 66 263 0.0 1.0 0.00 1.01 1.01 99 1010.7
20260507150315 65 270 0.0 1.0 0.00 1.01 1.01 99 1010.5
20260507145811 65 270 0.0 2.0 0.00 1.01 1.01 99 1010.9
20260507145308 65 291 1.0 2.0 0.00 1.01 1.01 99 1010.8
20260507144805 65 294 1.0 2.0 0.00 1.01 1.01 99 1010.9
20260507144302 64 270 0.0 1.0 0.05 1.01 1.01 99 1011.0
20260507143758 64 311 2.0 2.0 0.05 1.01 1.01 99 1011.0
20260507143256 64 270 0.0 1.0 0.00 1.00 1.00 99 1011.4
20260507142752 64 255 1.0 1.0 0.00 1.00 1.00 99 1011.1
20260507142248 64 270 0.0 1.0 0.00 1.00 1.00 99 1010.8
20260507141745 64 270 0.0 1.0 0.00 1.00 1.00 99 1010.6
20260507141242 64 172 0.0 2.0 0.00 1.00 1.00 99 1010.7
20260507140738 64 190 2.0 2.0 0.00 1.00 1.00 99 1010.3
20260507140236 64 270 0.0 0.0 0.00 1.00 1.00 99 1010.3
20260507135733 64 254 1.0 1.0 0.00 1.00 1.00 99 1010.1
20260507135230 64 172 0.0 0.0 0.00 1.00 1.00 99 1010.1
20260507134726 64 215 0.0 2.0 0.00 1.00 1.00 99 1010.6
20260507134222 64 294 0.0 2.0 0.00 1.00 1.00 99 1010.5
20260507133718 64 191 2.0 2.0 0.00 1.00 1.00 99 1010.6
20260507133215 64 285 0.0 2.0 0.00 1.00 1.00 99 1010.4
20260507132713 64 289 0.0 2.0 0.02 1.00 1.00 99 1010.3
20260507132209 64 262 0.0 0.0 0.02 1.00 1.00 99 1010.3
20260507131706 64 270 0.0 0.0 0.07 1.00 1.00 99 1010.6
20260507131204 63 99 0.0 0.0 0.09 1.00 1.00 99 1010.1
20260507130700 63 99 0.0 0.0 0.12 0.98 0.98 99 1011.0
20260507130158 63 99 0.0 0.0 0.14 0.98 0.98 99 1011.1
20260507125656 63 254 0.0 0.0 0.12 0.96 0.96 99 1011.3
20260507125154 63 254 0.0 1.0 0.05 0.95 0.95 99 1011.6
20260507124650 63 270 1.0 2.0 0.02 0.94 0.94 99 1011.2
20260507124148 63 331 0.0 2.0 0.00 0.94 0.94 99 1010.8
20260507123646 63 270 1.0 1.0 0.05 0.94 0.94 99 1010.8
20260507123142 63 90 0.0 2.0 0.14 0.94 0.94 99 1010.6
20260507122638 63 286 0.0 1.0 0.12 0.93 0.93 99 1010.8
20260507122134 63 342 0.0 2.0 0.07 0.92 0.92 99 1010.6
20260507121630 63 279 0.0 1.0 0.05 0.91 0.91 99 1010.5
20260507121126 63 0 0.0 0.0 0.02 0.91 0.91 99 1010.2
20260507120622 63 352 0.0 0.0 0.02 0.91 0.91 99 1010.0
20260507120119 63 345 1.0 1.0 0.02 0.90 0.90 99 1010.0
20260507115615 63 0 0.0 1.0 0.02 0.90 0.90 99 1009.7
20260507115111 63 346 0.0 1.0 0.07 0.90 0.90 99 1009.7
20260507114607 63 172 0.0 0.0 0.14 0.90 0.90 99 1010.1
20260507114105 63 180 0.0 1.0 0.12 0.89 0.89 99 1010.2
20260507113601 63 81 0.0 0.0 0.19 0.87 0.87 99 1010.8
20260507113059 63 105 0.0 1.0 0.31 0.86 0.86 99 1010.3
20260507112557 63 18 0.0 1.0 0.52 0.83 0.83 99 1011.3
20260507112053 63 236 0.0 2.0 1.04 0.80 0.80 99 1011.3
20260507111550 63 72 2.0 4.0 0.92 0.72 0.72 99 1011.0
20260507111047 63 306 0.0 2.0 0.52 0.63 0.63 99 1011.0
20260507110543 63 5 2.0 2.0 0.33 0.57 0.57 99 1010.0
20260507110040 63 5 0.0 3.0 0.19 0.54 0.54 99 1010.0
20260507105537 63 325 0.0 1.0 0.05 0.52 0.52 99 1009.9
20260507105032 63 325 0.0 1.0 0.02 0.51 0.51 99 1009.9
20260507104530 63 331 0.0 1.0 0.02 0.51 0.51 99 1009.8
20260507104026 63 286 0.0 0.0 0.02 0.50 0.50 99 1009.9
20260507103523 63 286 0.0 1.0 0.02 0.50 0.50 99 1009.9
20260507103019 63 0 0.0 1.0 0.02 0.50 0.50 99 1009.5
20260507102516 63 279 0.0 0.0 0.02 0.50 0.50 99 1010.0
20260507102012 63 279 0.0 0.0 0.00 0.50 0.50 99 1010.1
20260507101508 63 279 0.0 0.0 0.00 0.50 0.50 99 1010.3
20260507101004 63 345 0.0 0.0 0.00 0.50 0.50 99 1010.4
20260507100502 63 345 0.0 0.0 0.00 0.50 0.50 99 1010.5
20260507100000 63 345 0.0 0.0 0.00 0.50 0.50 99 1010.3
20260507095457 63 345 0.0 0.0 0.00 0.50 0.50 99 1010.4
20260507094954 63 352 0.0 0.0 0.00 0.50 0.50 99 1010.2
20260507094450 63 270 0.0 0.0 0.00 0.50 0.50 99 1010.4
20260507093947 63 90 0.0 2.0 0.00 0.50 0.50 99 1010.5
20260507093445 63 254 0.0 1.0 0.00 0.50 0.50 99 1010.4
20260507092943 63 187 0.0 0.0 0.00 0.50 0.50 99 1010.4
20260507092439 63 187 0.0 1.0 0.00 0.50 0.50 99 1010.6
20260507091936 63 206 0.0 0.0 0.00 0.50 0.50 99 1010.5
20260507091432 63 279 0.0 0.0 0.00 0.50 0.50 99 1010.6
20260507090928 63 279 0.0 0.0 0.00 0.50 0.50 99 1010.5
20260507090425 63 279 0.0 0.0 0.00 0.50 0.50 99 1010.5
20260507085921 63 194 0.0 0.0 0.00 0.50 0.50 99 1010.6
20260507085418 63 194 0.0 0.0 0.02 0.50 0.50 99 1010.7
20260507084915 63 194 0.0 1.0 0.02 0.50 0.50 99 1010.6
20260507084412 63 15 0.0 0.0 0.00 0.49 0.49 99 1010.8
20260507083909 63 15 0.0 0.0 0.00 0.49 0.49 99 1011.0
20260507083405 63 15 0.0 0.0 0.02 0.49 0.49 99 1010.6
20260507082902 63 15 0.0 0.0 0.02 0.49 0.49 99 1010.6
20260507082357 63 15 0.0 0.0 0.00 0.49 0.49 99 1010.9
20260507081855 63 15 0.0 0.0 0.00 0.49 0.49 99 1011.0
20260507081351 63 15 0.0 0.0 0.02 0.49 0.49 99 1010.9
20260507080848 63 15 0.0 0.0 0.00 0.48 0.48 99 1011.2
20260507080344 63 15 0.0 0.0 0.00 0.48 0.48 99 1010.8
20260507075839 63 8 0.0 0.0 0.02 0.48 0.48 99 1011.1
20260507075335 63 8 0.0 0.0 0.02 0.48 0.48 99 1011.2
20260507074832 63 8 0.0 2.0 0.02 0.48 0.48 99 1011.5
20260507074330 63 0 0.0 2.0 0.05 0.48 0.48 99 1011.6
20260507073827 63 270 0.0 0.0 0.09 0.48 0.48 99 1011.6
20260507073324 63 270 0.0 0.0 0.09 0.47 0.47 99 1011.4
20260507072821 63 270 0.0 1.0 0.17 0.46 0.46 99 1011.6
20260507072318 63 180 0.0 0.0 0.14 0.45 0.45 99 1011.4
20260507071815 63 180 0.0 0.0 0.12 0.43 0.43 99 1011.7
20260507071312 63 180 0.0 0.0 0.17 0.42 0.42 99 1011.2
20260507070809 63 180 0.0 1.0 0.09 0.41 0.41 99 1011.5
20260507070306 63 15 0.0 0.0 0.00 0.40 0.40 99 1011.6
20260507065802 63 15 0.0 0.0 0.02 0.40 0.40 99 1011.7
20260507065259 63 0 0.0 0.0 0.07 0.40 0.40 99 1012.0
20260507064756 63 286 0.0 0.0 0.09 0.39 0.39 99 1011.9
20260507064255 63 286 0.0 0.0 0.09 0.39 0.39 99 1012.3
20260507063753 63 157 0.0 2.0 0.14 0.38 0.38 99 1011.5
20260507063249 63 180 0.0 0.0 0.14 0.37 0.37 99 1011.8
20260507062746 63 0 0.0 0.0 0.07 0.35 0.35 99 1012.0
20260507062243 63 82 0.0 0.0 0.07 0.35 0.35 99 1012.3
20260507061741 63 82 0.0 0.0 0.12 0.34 0.34 99 1012.3
20260507061239 63 82 0.0 0.0 0.24 0.34 0.34 99 1012.5
20260507060737 63 8 0.0 2.0 0.21 0.32 0.32 99 1012.6
20260507060233 63 0 0.0 0.0 0.12 0.29 0.29 99 1013.1
20260507055729 63 0 0.0 0.0 0.05 0.28 0.28 99 1013.1
20260507055225 63 0 0.0 0.0 0.02 0.28 0.28 99 1012.8
20260507054721 64 0 0.0 0.0 0.09 0.28 0.28 99 1012.6
20260507054218 63 0 0.0 1.0 0.17 0.27 0.27 99 1012.7
20260507053716 64 0 0.0 1.0 0.21 0.26 0.26 99 1013.0
20260507053213 64 187 0.0 2.0 0.19 0.24 0.24 99 1013.5
20260507052712 64 83 0.0 0.0 0.17 0.22 0.22 99 1013.4
20260507052208 64 352 0.0 0.0 0.19 0.20 0.20 99 1013.6
20260507051706 64 180 0.0 0.0 0.24 0.19 0.19 99 1013.1
20260507051202 64 180 1.0 2.0 0.42 0.17 0.17 99 1013.6
20260507050659 64 352 0.0 0.0 0.33 0.15 0.15 99 1013.6
20260507050156 64 209 0.0 2.0 0.17 0.10 0.10 99 1013.7
20260507045653 64 6 0.0 3.0 0.24 0.09 0.09 99 1013.0
20260507045149 64 0 1.0 1.0 0.12 0.07 0.07 99 1013.4
20260507044646 64 286 0.0 1.0 0.02 0.05 0.05 99 1013.0
20260507044143 64 345 0.0 0.0 0.02 0.05 0.05 99 1012.8
20260507043639 64 90 0.0 0.0 0.00 0.05 0.05 99 1012.7
20260507043136 64 90 0.0 2.0 0.02 0.05 0.05 99 1012.6
20260507042633 64 0 1.0 2.0 0.09 0.05 0.05 99 1012.6
20260507042128 64 0 0.0 1.0 0.12 0.04 0.04 99 1012.9
20260507041625 64 209 0.0 1.0 0.12 0.03 0.03 99 1013.0
20260507041121 64 345 1.0 1.0 0.12 0.02 0.02 99 1013.3
20260507040619 64 345 0.0 0.0 0.12 0.01 0.01 99 1013.0
20260507040115 64 345 0.0 0.0 0.12 0.00 0.00 99 1012.9
20260507035611 64 334 0.0 1.0 0.07 0.69 0.69 99 1013.0
20260507035108 64 257 0.0 2.0 0.05 0.68 0.68 99 1013.2
20260507034604 64 166 0.0 4.0 0.07 0.67 0.67 99 1012.8
20260507034102 64 164 0.0 2.0 0.07 0.67 0.67 99 1013.3
20260507033600 64 270 0.0 2.0 0.02 0.66 0.66 99 1013.7
20260507033057 64 63 0.0 2.0 0.17 0.66 0.66 99 1012.5
20260507032554 64 186 0.0 2.0 0.38 0.66 0.66 99 1013.6
20260507032050 65 279 0.0 2.0 0.24 0.63 0.63 99 1013.7
20260507031547 64 246 0.0 2.0 0.05 0.59 0.59 99 1012.7
20260507031044 64 0 0.0 2.0 0.02 0.59 0.59 99 1012.3
20260507030540 64 277 0.0 2.0 0.00 0.59 0.59 99 1012.5
20260507030038 65 270 0.0 3.0 0.00 0.59 0.59 99 1012.8
20260507025535 65 106 0.0 2.0 0.00 0.59 0.59 99 1012.9
20260507025032 65 270 1.0 1.0 0.00 0.59 0.59 99 1013.4
20260507024530 65 279 0.0 0.0 0.05 0.59 0.59 99 1013.0
20260507024027 65 261 0.0 1.0 0.09 0.59 0.59 99 1013.2
20260507023522 65 114 0.0 2.0 0.09 0.57 0.57 99 1013.0
20260507023020 65 300 0.0 1.0 0.21 0.57 0.57 99 1013.1
20260507022517 65 114 0.0 2.0 0.19 0.56 0.56 99 1012.7
20260507022012 65 315 0.0 0.0 0.17 0.53 0.53 99 1013.5
20260507021508 65 306 1.0 2.0 0.31 0.52 0.52 99 1013.1
20260507021005 65 82 1.0 1.0 0.28 0.50 0.50 99 1013.6
20260507020502 65 270 0.0 0.0 0.14 0.47 0.47 99 1013.8
20260507015959 65 185 0.0 1.0 0.14 0.45 0.45 99 1013.7
20260507015458 65 270 0.0 0.0 0.12 0.45 0.45 99 1013.8
20260507014955 65 300 0.0 0.0 0.07 0.43 0.43 99 1013.5
20260507014451 65 270 0.0 0.0 0.12 0.42 0.42 99 1013.3
20260507013947 65 8 0.0 1.0 0.17 0.42 0.42 99 1013.1
20260507013444 65 340 0.0 0.0 0.17 0.40 0.40 99 1013.9
20260507012941 65 340 0.0 1.0 0.14 0.39 0.39 99 1014.0
20260507012438 65 8 0.0 2.0 0.09 0.37 0.37 99 1013.5
20260507011934 65 0 0.0 3.0 0.09 0.37 0.37 99 1014.0
20260507011431 65 331 0.0 2.0 0.07 0.36 0.36 99 1013.8
20260507010926 65 28 2.0 3.0 0.00 0.35 0.35 99 1013.7
20260507010421 65 66 0.0 1.0 0.12 0.35 0.35 99 1013.9
20260507005918 65 246 1.0 2.0 0.21 0.35 0.35 99 1013.9
20260507005415 65 0 0.0 2.0 0.19 0.33 0.33 99 1013.8
20260507004912 66 261 0.0 2.0 0.45 0.31 0.31 99 1013.9
20260507004409 66 97 0.0 3.0 0.85 0.29 0.29 98 1014.1
20260507003906 66 283 1.0 1.0 0.76 0.22 0.22 98 1014.3
20260507003401 67 278 0.0 2.0 0.35 0.14 0.14 97 1014.6
20260507002857 67 270 0.0 2.0 0.28 0.10 0.10 96 1013.7
20260507002353 68 270 1.0 1.0 0.45 0.07 0.07 94 1013.0
20260507001850 69 294 0.0 2.0 0.28 0.05 0.05 89 1011.8
20260507001347 71 264 2.0 3.0 0.00 0.00 0.00 81 1011.1
20260507000843 71 0 1.0 3.0 0.00 0.00 0.00 81 1011.0
20260507000339 71 348 3.0 7.0 0.00 0.00 0.00 81 1010.9
20260506235836 71 78 2.0 4.0 0.00 0.00 0.00 81 1011.0
20260506235333 72 29 1.0 3.0 0.00 0.00 0.00 80 1011.5
20260506234828 72 4 2.0 3.0 0.00 0.00 0.00 80 1011.4
20260506234327 73 339 2.0 2.0 0.00 0.00 0.00 80 1012.0
20260506233824 73 164 3.0 5.0 0.00 0.00 0.00 80 1011.7
20260506233320 74 90 2.0 3.0 0.00 0.00 0.00 80 1011.7
20260506232817 75 26 0.0 6.0 0.00 0.00 0.00 79 1011.9
20260506232312 76 318 3.0 3.0 0.00 0.00 0.00 76 1012.1
20260506231809 77 19 2.0 3.0 0.00 0.00 0.00 71 1012.0
20260506231307 78 320 2.0 2.0 0.00 0.00 0.00 68 1011.8
20260506230804 78 286 1.0 1.0 0.00 0.00 0.00 68 1012.0
20260506230301 79 270 0.0 1.0 0.00 0.00 0.00 67 1011.9
20260506225757 79 294 2.0 2.0 0.00 0.00 0.00 66 1011.9
20260506225254 79 279 1.0 2.0 0.00 0.00 0.00 66 1011.9
20260506224751 79 326 2.0 3.0 0.00 0.00 0.00 66 1011.9
20260506224248 79 263 1.0 4.0 0.00 0.00 0.00 65 1011.7
20260506223744 79 286 2.0 4.0 0.00 0.00 0.00 65 1011.6
20260506223240 79 251 1.0 3.0 0.00 0.00 0.00 64 1011.5
20260506222737 80 248 2.0 2.0 0.00 0.00 0.00 65 1011.4
20260506222233 80 270 1.0 6.0 0.00 0.00 0.00 64 1011.3
20260506221731 80 157 3.0 3.0 0.00 0.00 0.00 64 1011.2
20260506221229 80 286 1.0 2.0 0.00 0.00 0.00 65 1011.1
20260506220726 80 257 0.0 2.0 0.00 0.00 0.00 65 1011.0
20260506220220 80 285 2.0 3.0 0.00 0.00 0.00 66 1011.0
20260506215717 80 270 1.0 2.0 0.00 0.00 0.00 66 1011.0
20260506215213 81 182 3.0 3.0 0.00 0.00 0.00 67 1011.1
20260506214709 80 278 1.0 2.0 0.00 0.00 0.00 68 1011.3
20260506214207 81 151 2.0 2.0 0.00 0.00 0.00 66 1011.5
20260506213705 80 270 2.0 2.0 0.00 0.00 0.00 67 1011.7
20260506213202 80 270 0.0 1.0 0.00 0.00 0.00 66 1011.4
20260506212659 81 148 2.0 3.0 0.00 0.00 0.00 64 1011.4
20260506212154 81 232 2.0 4.0 0.00 0.00 0.00 65 1011.8
20260506211650 81 195 1.0 1.0 0.00 0.00 0.00 64 1011.7
20260506211147 81 282 0.0 3.0 0.00 0.00 0.00 66 1011.9
20260506210644 80 180 2.0 3.0 0.00 0.00 0.00 64 1012.1
20260506210140 81 221 2.0 2.0 0.00 0.00 0.00 65 1012.1
20260506205638 81 172 0.0 3.0 0.00 0.00 0.00 65 1012.4
20260506205132 80 270 2.0 3.0 0.00 0.00 0.00 66 1012.7
20260506204631 80 262 0.0 1.0 0.00 0.00 0.00 68 1012.5
20260506204127 80 294 0.0 1.0 0.00 0.00 0.00 68 1012.7
20260506203626 80 170 0.0 2.0 0.00 0.00 0.00 68 1012.6
20260506203122 79 289 0.0 2.0 0.00 0.00 0.00 69 1012.6
20260506202620 79 70 2.0 4.0 0.00 0.00 0.00 68 1012.8
20260506202116 79 285 0.0 3.0 0.00 0.00 0.00 67 1012.7
20260506201613 80 270 1.0 2.0 0.00 0.00 0.00 67 1012.7
20260506201110 80 294 0.0 2.0 0.00 0.00 0.00 69 1012.9
20260506200606 79 276 2.0 3.0 0.00 0.00 0.00 68 1013.1
20260506195559 78 0 0.0 2.0 0.00 0.00 0.00 69 1013.4
20260506195056 79 0 0.0 2.0 0.00 0.00 0.00 68 1013.5
20260506194554 79 270 0.0 1.0 0.00 0.00 0.00 68 1013.4
20260506194049 80 270 0.0 2.0 0.00 0.00 0.00 67 1013.5
20260506193548 80 257 1.0 2.0 0.00 0.00 0.00 66 1013.4
20260506193045 79 246 2.0 2.0 0.00 0.00 0.00 67 1013.4